When you browse on this site, cookies collect data to enhance your experience and personalize the content and advertising you see.
Visit our Privacy Policy to learn more. By continuing to use the site, you agree to this use of cookies and data.
  • In Romania
  • List of Countries
  • For 7 days
  • Water Temperature
  • Weather Map
  • Weather Widgets
  • user-avatar
    Login

    Hourly Weather Vyglyadovka

    Today, 5 June, Friday

    Time Temperature Precipitation Wind Pressure Humidity
    00:00 +11°C° 0 mm 3 mps 741 mmHg 94%
    01:00 +10°C° 0 mm 3 mps 742 mmHg 94%
    02:00 +10°C° 0 mm 3 mps 742 mmHg 94%
    03:00 +10°C° 0 mm 3 mps 742 mmHg 95%
    04:00 +11°C° 0 mm 3 mps 742 mmHg 93%
    05:00 +11°C° 0 mm 4 mps 742 mmHg 91%
    06:00 +12°C° 0 mm 4 mps 742 mmHg 90%
    07:00 +13°C° 0 mm 4 mps 742 mmHg 86%
    08:00 +15°C° 0 mm 5 mps 742 mmHg 83%
    09:00 +16°C° 0 mm 5 mps 743 mmHg 77%
    10:00 +17°C° 0.2 mm 6 mps 742 mmHg 75%
    11:00 +17°C° 0.2 mm 7 mps 742 mmHg 72%
    12:00 +18°C° 0.2 mm 7 mps 742 mmHg 70%
    13:00 +17°C° 0.6 mm 8 mps 742 mmHg 74%
    14:00 +17°C° 0.6 mm 8 mps 742 mmHg 78%
    15:00 +15°C° 0 mm 8 mps 742 mmHg 80%
    16:00 +13°C° 0.6 mm 8 mps 742 mmHg 84%
    17:00 +14°C° 0.6 mm 7 mps 742 mmHg 88%
    18:00 +13°C° 0.6 mm 6 mps 742 mmHg 91%
    19:00 +13°C° 0.6 mm 5 mps 742 mmHg 93%
    20:00 +12°C° 0.6 mm 4 mps 742 mmHg 94%
    21:00 +12°C° 0.6 mm 4 mps 742 mmHg 95%
    22:00 +12°C° 0.3 mm 3 mps 742 mmHg 96%
    23:00 +11°C° 0.3 mm 3 mps 742 mmHg 96%

    Tomorrow, 6 June, Saturday

    Time Temperature Precipitation Wind Pressure Humidity
    00:00 +11°C° 0.3 mm 3 mps 742 mmHg 97%
    01:00 +11°C° 0.1 mm 3 mps 743 mmHg 97%
    02:00 +12°C° 0.1 mm 3 mps 743 mmHg 97%
    03:00 +13°C° 0.1 mm 2 mps 743 mmHg 98%
    04:00 +12°C° 0 mm 3 mps 743 mmHg 97%
    05:00 +13°C° 0 mm 3 mps 743 mmHg 97%
    06:00 +14°C° 0 mm 3 mps 743 mmHg 97%
    07:00 +16°C° 0 mm 3 mps 744 mmHg 94%
    08:00 +17°C° 0 mm 3 mps 744 mmHg 92%
    09:00 +17°C° 0 mm 3 mps 744 mmHg 90%
    10:00 +18°C° 0 mm 4 mps 744 mmHg 89%
    11:00 +19°C° 0 mm 4 mps 744 mmHg 87%
    12:00 +20°C° 0 mm 4 mps 744 mmHg 86%
    13:00 +20°C° 0.2 mm 4 mps 744 mmHg 85%
    14:00 +21°C° 0.2 mm 4 mps 744 mmHg 83%
    15:00 +22°C° 0.2 mm 4 mps 744 mmHg 82%
    16:00 +22°C° 0.3 mm 4 mps 744 mmHg 82%
    17:00 +22°C° 0.3 mm 3 mps 744 mmHg 83%
    18:00 +22°C° 0.3 mm 3 mps 744 mmHg 84%
    19:00 +21°C° 0.7 mm 2 mps 744 mmHg 87%
    20:00 +20°C° 0.7 mm 2 mps 745 mmHg 90%
    21:00 +19°C° 0.7 mm 2 mps 745 mmHg 92%
    22:00 +19°C° 0.3 mm 2 mps 745 mmHg 93%
    23:00 +18°C° 0.3 mm 2 mps 745 mmHg 93%

    Day after tomorrow, 7 June, Sunday

    Time Temperature Precipitation Wind Pressure Humidity
    00:00 +18°C° 0.3 mm 2 mps 745 mmHg 93%
    01:00 +17°C° 0 mm 2 mps 745 mmHg 94%
    02:00 +17°C° 0 mm 2 mps 745 mmHg 94%
    03:00 +17°C° 0 mm 2 mps 746 mmHg 95%
    04:00 +17°C° 0 mm 2 mps 746 mmHg 94%
    05:00 +17°C° 0 mm 2 mps 746 mmHg 94%
    06:00 +18°C° 0 mm 2 mps 746 mmHg 94%
    07:00 +19°C° 0 mm 2 mps 746 mmHg 90%
    08:00 +21°C° 0 mm 2 mps 747 mmHg 85%
    09:00 +23°C° 0 mm 1 mps 747 mmHg 81%
    10:00 +24°C° 0.8 mm 2 mps 747 mmHg 78%
    11:00 +25°C° 0.8 mm 2 mps 747 mmHg 76%
    12:00 +26°C° 0.8 mm 3 mps 747 mmHg 73%
    13:00 +26°C° 0.3 mm 3 mps 747 mmHg 72%
    14:00 +26°C° 0.3 mm 3 mps 747 mmHg 71%
    15:00 +26°C° 0.3 mm 2 mps 747 mmHg 71%
    16:00 +26°C° 0.2 mm 2 mps 747 mmHg 73%
    17:00 +26°C° 0.2 mm 2 mps 747 mmHg 76%
    18:00 +26°C° 0.2 mm 2 mps 747 mmHg 78%
    19:00 +24°C° 0 mm 2 mps 747 mmHg 82%
    20:00 +23°C° 0 mm 2 mps 747 mmHg 86%
    21:00 +20°C° 0 mm 2 mps 747 mmHg 89%
    22:00 +20°C° 0 mm 1 mps 747 mmHg 90%
    23:00 +20°C° 0 mm 1 mps 747 mmHg 90%

    8 June, Monday

    Time Temperature Precipitation Wind Pressure Humidity
    00:00 +19°C° 0 mm 1 mps 748 mmHg 90%
    01:00 +19°C° 0 mm 1 mps 748 mmHg 91%
    02:00 +18°C° 0 mm 1 mps 748 mmHg 91%
    03:00 +18°C° 0 mm 1 mps 748 mmHg 92%
    04:00 +18°C° 0 mm 2 mps 748 mmHg 92%
    05:00 +18°C° 0 mm 2 mps 748 mmHg 93%
    06:00 +18°C° 0 mm 2 mps 748 mmHg 93%
    07:00 +20°C° 0 mm 2 mps 748 mmHg 89%
    08:00 +21°C° 0 mm 2 mps 748 mmHg 86%
    09:00 +24°C° 0 mm 3 mps 748 mmHg 82%
    10:00 +25°C° 0 mm 3 mps 748 mmHg 79%
    11:00 +25°C° 0 mm 3 mps 748 mmHg 75%
    12:00 +26°C° 0 mm 3 mps 748 mmHg 72%
    13:00 +26°C° 0 mm 3 mps 748 mmHg 72%
    14:00 +27°C° 0 mm 3 mps 748 mmHg 72%
    15:00 +27°C° 0 mm 3 mps 748 mmHg 72%
    16:00 +26°C° 0.1 mm 3 mps 748 mmHg 75%
    17:00 +26°C° 0.1 mm 4 mps 747 mmHg 78%
    18:00 +25°C° 0.1 mm 4 mps 747 mmHg 81%
    19:00 +24°C° 0 mm 3 mps 747 mmHg 84%
    20:00 +21°C° 0 mm 3 mps 747 mmHg 87%
    21:00 +20°C° 0 mm 3 mps 748 mmHg 90%
    22:00 +19°C° 0 mm 3 mps 748 mmHg 91%
    23:00 +18°C° 0 mm 2 mps 748 mmHg 92%

    9 June, Tuesday

    Time Temperature Precipitation Wind Pressure Humidity
    00:00 +18°C° 0 mm 2 mps 748 mmHg 93%
    01:00 +17°C° 0 mm 2 mps 748 mmHg 93%
    02:00 +17°C° 0 mm 2 mps 748 mmHg 93%
    03:00 +17°C° 0 mm 2 mps 748 mmHg 93%
    04:00 +17°C° 0 mm 2 mps 748 mmHg 93%
    05:00 +17°C° 0 mm 2 mps 748 mmHg 93%
    06:00 +18°C° 0 mm 2 mps 748 mmHg 92%
    07:00 +19°C° 0 mm 3 mps 748 mmHg 89%
    08:00 +20°C° 0 mm 3 mps 748 mmHg 85%
    09:00 +22°C° 0 mm 3 mps 748 mmHg 81%
    10:00 +24°C° 0 mm 3 mps 748 mmHg 78%
    11:00 +24°C° 0 mm 3 mps 748 mmHg 74%
    12:00 +25°C° 0 mm 4 mps 748 mmHg 70%
    13:00 +25°C° 0 mm 4 mps 748 mmHg 70%
    14:00 +25°C° 0 mm 4 mps 748 mmHg 69%
    15:00 +26°C° 0 mm 4 mps 748 mmHg 68%
    16:00 +25°C° 0.1 mm 3 mps 747 mmHg 71%
    17:00 +25°C° 0.1 mm 3 mps 747 mmHg 74%
    18:00 +25°C° 0.1 mm 3 mps 747 mmHg 77%
    19:00 +23°C° 0 mm 2 mps 747 mmHg 81%
    20:00 +21°C° 0 mm 2 mps 747 mmHg 86%
    21:00 +19°C° 0 mm 2 mps 747 mmHg 90%
    22:00 +19°C° 0 mm 2 mps 747 mmHg 91%
    23:00 +18°C° 0 mm 2 mps 747 mmHg 91%

    10 June, Wednesday

    Time Temperature Precipitation Wind Pressure Humidity
    00:00 +19°C° 0 mm 1 mps 747 mmHg 92%
    01:00 +18°C° 0 mm 1 mps 747 mmHg 92%
    02:00 +18°C° 0 mm 1 mps 747 mmHg 93%
    03:00 +18°C° 0 mm 1 mps 747 mmHg 93%
    04:00 +18°C° 0 mm 1 mps 747 mmHg 93%
    05:00 +19°C° 0 mm 1 mps 747 mmHg 92%
    06:00 +19°C° 0 mm 1 mps 747 mmHg 92%
    07:00 +21°C° 0 mm 1 mps 747 mmHg 88%
    08:00 +22°C° 0 mm 1 mps 747 mmHg 84%
    09:00 +23°C° 0 mm 1 mps 747 mmHg 80%
    10:00 +24°C° 0.1 mm 1 mps 747 mmHg 76%
    11:00 +25°C° 0.1 mm 1 mps 747 mmHg 72%
    12:00 +26°C° 0.1 mm 1 mps 747 mmHg 68%
    13:00 +26°C° 0.1 mm 2 mps 747 mmHg 67%
    14:00 +26°C° 0.1 mm 2 mps 747 mmHg 66%
    15:00 +27°C° 0.1 mm 2 mps 746 mmHg 64%
    16:00 +27°C° 0 mm 2 mps 746 mmHg 67%
    17:00 +27°C° 0 mm 2 mps 746 mmHg 69%
    18:00 +27°C° 0 mm 2 mps 746 mmHg 72%
    19:00 +25°C° 0.1 mm 2 mps 746 mmHg 77%
    20:00 +23°C° 0.1 mm 2 mps 746 mmHg 82%
    21:00 +21°C° 0.1 mm 2 mps 746 mmHg 87%
    22:00 +20°C° 0 mm 2 mps 746 mmHg 88%
    23:00 +20°C° 0 mm 2 mps 746 mmHg 89%
    Show more